Wind_Speed
12 13 12 12 10 10 11 10 8 6 8 9 8 7 7 7 4 2 2 1 2 3 4 5 4 4 3 6 6 5 7 12 16 14 14 6 13 12 14 15 17 12 14 20 24
14 13 13 11 12 11 9 9 9 7 9 9 9 7 7 5 1 3 3 2 2 3 3 4 4 4 4 5 5 9 10 12 7 9 11 10 16 18 19 22 20 22 19 11 10
16 15 14 13 12 12 10 9 9 8 9 9 9 8 5 4 2 3 2 1 3 4 4 4 3 2 5 5 6 4 11 10 9 8 8 15 20 24 25 22 23 22 21 20 23
16 19 15 13 12 12 12 9 10 9 10 9 11 10 5 1 2 4 0 3 5 8 4 4 2 3 4 6 2 9 7 11 10 11 16 20 24 26 29 33 30 27 28 30 30
19 19 18 15 13 12 11 10 10 10 11 10 9 7 4 3 2 3 3 3 6 5 6 2 3 2 5 4 6 10 9 9 14 18 22 25 26 25 30 34 29 24 23 26 25
24 22 19 17 15 13 11 10 10 10 10 11 10 7 3 6 6 6 4 3 3 4 5 5 2 1 3 3 5 3 11 17 17 19 22 21 21 19 15 18 25 19 18 17 20
27 26 23 19 15 14 13 11 10 8 9 9 8 5 3 2 10 6 3 3 4 4 3 4 2 4 4 6 4 9 13 12 7 4 12 15 18 12 7 10 19 22 20 24 29
31 30 24 24 16 15 12 11 10 8 9 9 5 2 2 14 8 5 5 1 5 3 1 2 2 3 3 5 6 8 7 5 8 10 7 8 18 9 18 12 17 24 38 41 38
35 33 28 25 18 15 13 10 8 8 8 7 4 4 5 10 5 4 4 1 3 2 2 2 1 3 3 6 9 5 8 11 9 4 10 8 27 13 25 34 35 35 33 36 42
38 36 32 26 20 15 14 9 6 6 6 5 5 4 7 8 7 6 3 3 1 1 2 2 2 5 4 6 8 10 12 11 13 6 15 21 32 23 35 30 30 30 31 31 35
47 39 36 26 21 19 16 11 4 3 9 4 4 1 10 10 9 5 2 1 1 2 4 1 6 6 7 5 8 9 13 18 14 16 14 12 27 34 34 27 29 32 32 35 38
48 43 41 30 22 20 18 11 11 6 4 10 6 5 10 10 8 5 3 4 3 3 2 5 5 5 3 4 7 11 14 18 13 2 18 17 29 31 23 15 16 22 32 37 38
50 44 42 32 24 24 25 18 10 8 2 4 7 6 6 8 5 6 3 1 2 2 3 6 4 4 4 7 9 13 13 16 21 18 20 11 18 10 17 16 35 34 36 38 41
52 45 43 31 26 24 25 22 15 11 4 10 9 7 8 6 5 5 2 1 3 3 4 5 1 3 7 10 7 12 5 10 18 17 7 12 9 14 17 23 26 34 33 38 40
51 51 42 35 18 34 23 21 17 11 5 11 8 9 8 7 12 5 2 2 4 1 3 3 3 4 5 2 3 6 9 15 18 18 16 7 7 9 21 26 30 30 42 38 37
53 51 39 37 19 24 23 23 19 5 8 9 9 11 11 7 5 6 3 2 1 3 6 9 6 5 3 6 8 12 15 17 3 3 5 5 4 8 14 18 25 29 38 44 41
57 48 46 41 30 26 26 26 5 7 11 11 11 14 11 9 7 7 4 3 1 3 1 2 5 3 4 9 4 4 10 4 4 5 6 2 10 11 21 21 17 20 29 38 42
56 47 43 36 31 30 24 6 7 13 12 8 17 17 9 12 6 6 7 5 3 2 2 2 5 4 2 5 6 7 4 4 6 8 15 16 3 6 21 26 27 29 30 34 40
51 46 44 35 33 29 22 11 8 11 12 17 17 14 7 9 5 6 5 5 3 5 3 2 2 3 7 5 5 2 3 3 6 15 7 4 9 11 25 23 28 28 32 33 37
51 37 31 32 33 25 10 12 6 5 16 22 9 10 11 14 10 5 11 6 6 2 2 1 4 3 3 3 3 6 7 3 3 5 8 8 7 11 23 22 22 21 28 31 37
48 17 26 32 29 14 5 8 5 16 16 11 8 10 9 13 9 8 9 7 6 5 2 2 3 3 3 1 5 3 3 4 5 6 5 7 5 7 14 15 18 22 27 29 34
18 6 34 31 12 12 10 7 11 17 9 5 9 9 13 13 8 7 9 3 8 4 4 3 2 3 4 3 1 6 7 7 4 2 9 8 5 12 11 15 19 22 25 29 31
11 18 30 18 9 12 7 9 9 13 9 7 6 5 9 10 6 8 8 8 7 1 5 4 2 3 6 6 9 3 10 8 7 6 3 4 4 8 12 15 21 22 23 26 29
16 5 9 7 3 13 12 14 8 7 5 9 11 11 11 10 3 10 9 5 5 4 5 2 1 3 6 4 3 6 10 9 5 4 4 4 3 10 12 14 19 23 24 26 29
7 7 13 8 7 10 10 14 16 7 5 10 6 6 10 7 8 7 7 6 5 6 5 0 2 4 10 11 4 2 7 12 12 13 7 4 4 8 11 12 14 18 23 27 31
7 10 9 21 19 13 8 15 18 9 10 10 11 13 8 9 3 11 9 6 5 6 3 3 1 6 7 6 11 7 8 12 9 11 11 4 6 3 7 12 19 22 23 25 27
7 19 12 14 15 13 10 18 16 14 4 11 17 11 8 8 7 8 3 5 6 4 5 3 2 5 3 2 10 4 5 6 10 11 6 9 8 12 6 13 18 21 22 23 25
Wind_Direction
294 295 298 303 305 306 310 306 299 298 301 309 322 328 330 330 337 14 27 125 90 80 64 10 349 308 261 226 220 224 250 253 259 263 273 290 297 290 302 281 282 285 278 285 302
286 292 293 296 300 301 302 298 295 299 298 308 319 329 328 323 23 75 150 99 39 6 3 358 329 332 245 233 221 232 251 280 323 289 285 287 286 301 300 289 284 289 287 276 290
284 285 286 290 293 295 291 291 290 295 297 309 315 321 324 310 149 146 142 44 358 358 355 339 327 308 249 228 206 225 260 332 258 288 282 286 284 294 289 280 280 285 282 280 291
277 284 284 284 285 287 288 286 289 293 300 314 324 326 324 226 304 174 101 28 22 29 21 33 332 265 264 247 209 262 263 277 287 286 293 286 291 280 276 279 285 282 280 280 282
271 272 279 276 276 279 281 284 283 289 302 312 322 323 312 260 159 191 106 54 19 28 44 51 44 316 280 283 282 246 283 279 279 281 279 283 274 274 280 282 287 285 284 281 280
264 266 267 270 272 270 269 269 274 287 299 310 321 320 266 241 175 138 95 52 19 28 29 39 39 344 268 274 272 324 280 286 288 280 283 271 280 277 265 285 291 293 293 291 288
261 262 268 262 264 267 265 260 265 274 288 298 308 309 245 196 151 135 119 85 36 42 17 13 4 326 319 282 289 276 287 289 290 192 296 303 275 243 312 287 287 292 288 292 286
259 254 255 264 251 257 253 254 260 264 277 280 287 272 241 157 148 129 132 47 357 346 349 304 297 295 273 298 267 277 269 279 143 294 310 305 283 292 319 291 283 283 294 293 287
257 255 251 257 242 246 242 246 258 267 267 265 242 182 164 162 145 159 158 298 329 5 318 200 264 282 238 273 266 186 301 315 315 286 305 298 294 298 291 286 289 285 284 284 288
254 253 247 239 233 228 228 228 236 254 237 224 201 185 172 165 168 158 159 341 213 234 219 255 209 255 228 257 295 313 310 296 298 318 291 297 290 299 293 296 290 288 285 282 282
248 254 248 225 218 213 206 178 150 235 206 227 168 164 138 152 139 151 180 242 213 227 287 281 261 258 348 300 306 298 288 288 301 317 315 300 295 292 295 301 296 299 299 297 294
246 251 237 220 198 203 201 196 186 166 172 204 179 162 149 156 151 153 160 245 255 293 264 229 267 38 330 294 279 282 288 294 310 254 323 304 295 289 293 314 310 321 314 306 303
236 244 225 216 190 200 195 206 193 189 232 185 202 188 168 155 159 143 176 243 267 234 274 282 352 303 286 287 276 276 283 292 296 313 293 307 291 342 317 341 0 348 333 321 310
230 236 216 191 189 203 203 204 188 167 228 160 184 181 161 160 152 154 173 238 201 296 310 287 23 321 300 289 281 283 326 295 299 314 313 337 293 313 359 6 348 346 351 348 338
234 220 212 204 176 195 196 182 165 154 235 131 140 155 159 196 130 150 169 210 256 198 229 78 279 295 286 308 257 286 312 297 290 288 310 214 222 310 6 356 358 356 353 347 348
222 209 196 178 174 194 174 161 149 153 227 155 142 169 161 173 159 148 157 168 231 264 220 275 271 269 272 304 265 286 293 280 300 299 260 251 248 55 12 358 355 354 355 352 350
209 207 190 174 171 174 162 143 157 218 143 161 166 173 167 165 155 191 163 145 230 252 157 243 177 185 261 318 253 257 303 291 243 214 276 120 288 57 18 10 354 353 353 358 354
204 188 171 171 174 162 164 159 188 186 173 139 152 161 170 157 167 166 178 172 71 351 289 327 175 191 136 289 301 313 316 324 298 317 316 305 281 69 21 8 4 1 360 3 357
180 167 173 167 176 173 172 202 197 174 149 142 151 163 157 171 164 174 217 166 125 31 356 302 205 187 260 307 310 71 254 42 272 263 263 284 60 147 4 9 5 359 8 2 0
159 152 159 165 167 169 189 222 164 157 144 152 147 181 177 176 172 189 180 164 149 151 332 110 270 158 340 247 209 285 341 254 215 282 312 302 67 356 356 357 358 359 0 360 4
137 123 158 163 162 168 181 212 149 155 142 169 151 148 176 161 177 176 169 157 175 153 214 196 265 121 251 203 12 324 261 289 281 262 290 310 82 3 357 354 357 356 356 0 6
119 114 163 160 164 186 204 177 149 153 153 127 120 123 160 153 161 167 173 163 163 153 179 165 234 290 319 259 88 70 354 299 275 288 290 279 93 19 4 358 0 356 356 360 8
102 100 157 173 181 182 171 145 150 162 141 132 128 152 155 156 137 161 164 132 156 202 174 161 137 334 150 151 214 333 348 322 262 251 307 345 63 7 2 2 2 355 359 3 8
122 126 137 193 233 174 157 157 124 121 82 94 119 133 137 148 137 161 152 162 170 202 164 188 174 217 276 339 3 288 349 6 339 275 66 54 18 5 8 2 359 357 358 4 11
93 134 156 183 179 181 176 158 142 128 98 129 149 178 161 149 149 157 155 149 160 153 143 37 293 250 269 265 136 1 14 34 28 3 25 86 35 4 9 358 6 7 3 8 12
108 141 162 163 163 178 158 169 155 129 149 165 166 159 164 158 184 165 156 177 163 170 127 123 245 281 254 114 157 78 33 53 44 16 41 333 61 354 24 8 14 13 11 9 7
134 144 147 166 166 169 168 162 158 128 66 166 149 145 151 135 124 121 140 140 127 125 128 172 276 268 197 340 140 130 16 69 80 42 13 29 354 348 353 21 19 10 9 7 4
Height
1526 1528 1527 1527 1527 1526 1525 1525 1525 1525 1525 1525 1525 1522 1521 1520 1518 1519 1519 1519 1518 1518 1517 1519 1519 1519 1518 1518 1518 1517 1507 1496 1489 1494 1491 1495 1497 1499 1500 1499 1498 1498 1497 1494 1493
1524 1524 1525 1524 1525 1524 1523 1523 1523 1523 1524 1524 1524 1523 1521 1519 1519 1519 1518 1516 1517 1517 1518 1518 1519 1518 1517 1516 1516 1512 1501 1491 1492 1496 1497 1500 1499 1497 1498 1495 1494 1494 1493 1492 1492
1522 1521 1521 1521 1522 1522 1521 1522 1522 1522 1522 1523 1521 1521 1519 1518 1519 1518 1517 1517 1516 1516 1515 1515 1515 1516 1513 1513 1512 1507 1501 1496 1500 1503 1504 1501 1499 1497 1493 1489 1492 1491 1490 1491 1491
1518 1519 1519 1519 1519 1520 1521 1519 1520 1520 1520 1521 1520 1520 1520 1518 1515 1516 1515 1517 1516 1514 1515 1515 1514 1513 1510 1507 1511 1509 1505 1507 1504 1506 1504 1500 1499 1494 1491 1485 1488 1488 1487 1486 1486
1515 1515 1515 1516 1515 1517 1518 1518 1517 1518 1518 1518 1518 1519 1520 1519 1518 1515 1515 1516 1517 1516 1516 1514 1514 1513 1509 1510 1510 1508 1505 1508 1506 1505 1502 1497 1493 1490 1484 1484 1484 1481 1481 1481 1479
1511 1511 1511 1512 1514 1514 1515 1515 1515 1517 1516 1516 1518 1518 1519 1517 1514 1514 1515 1516 1516 1517 1516 1515 1514 1513 1512 1511 1511 1509 1508 1505 1501 1499 1496 1491 1486 1487 1479 1479 1480 1479 1476 1475 1474
1505 1507 1509 1508 1510 1512 1513 1513 1513 1513 1514 1514 1515 1516 1517 1517 1514 1515 1515 1516 1515 1516 1516 1514 1514 1514 1512 1508 1510 1508 1503 1495 1494 1495 1490 1488 1478 1470 1472 1476 1476 1473 1471 1468 1467
1500 1502 1502 1506 1506 1508 1510 1511 1511 1511 1511 1512 1513 1514 1516 1513 1514 1515 1515 1515 1514 1514 1514 1513 1514 1513 1512 1511 1507 1503 1498 1488 1492 1493 1488 1491 1460 1463 1471 1473 1470 1468 1463 1460 1456
1494 1496 1498 1500 1503 1505 1507 1508 1508 1510 1508 1510 1512 1513 1514 1513 1514 1514 1514 1516 1515 1515 1512 1511 1512 1511 1510 1504 1494 1497 1485 1486 1488 1492 1491 1488 1460 1467 1469 1467 1465 1462 1460 1456 1448
1486 1489 1492 1494 1499 1501 1505 1505 1506 1508 1508 1509 1510 1515 1513 1512 1512 1513 1514 1514 1516 1514 1514 1512 1509 1505 1504 1498 1484 1488 1491 1486 1487 1485 1485 1480 1460 1459 1457 1461 1455 1453 1451 1448 1443
1479 1482 1487 1490 1493 1497 1502 1504 1508 1510 1507 1505 1506 1506 1506 1508 1511 1512 1513 1515 1515 1513 1506 1509 1502 1492 1496 1503 1503 1501 1496 1486 1484 1484 1487 1479 1466 1449 1448 1454 1449 1447 1443 1439 1434
1471 1475 1479 1484 1489 1493 1498 1499 1496 1501 1503 1502 1503 1504 1505 1507 1510 1511 1511 1514 1511 1505 1508 1505 1496 1502 1505 1506 1506 1500 1493 1485 1481 1485 1485 1475 1459 1444 1441 1439 1442 1442 1437 1430 1424
1462 1468 1473 1477 1485 1491 1490 1496 1494 1497 1500 1502 1502 1505 1505 1508 1508 1508 1510 1510 1508 1505 1503 1502 1499 1507 1506 1501 1501 1494 1493 1489 1483 1485 1478 1473 1448 1428 1434 1430 1442 1452 1444 1434 1426
1450 1459 1465 1470 1484 1486 1488 1490 1490 1495 1494 1496 1499 1501 1504 1506 1507 1508 1508 1509 1508 1504 1505 1504 1504 1505 1503 1500 1499 1494 1490 1491 1485 1480 1477 1475 1466 1435 1426 1442 1454 1446 1446 1434 1424
1441 1452 1457 1463 1470 1483 1480 1486 1488 1493 1492 1491 1497 1499 1501 1504 1504 1507 1507 1507 1503 1503 1508 1501 1504 1505 1507 1501 1500 1491 1491 1490 1485 1478 1480 1463 1467 1428 1441 1453 1446 1444 1438 1436 1427
1433 1444 1452 1461 1467 1481 1478 1482 1488 1493 1483 1487 1492 1496 1499 1502 1503 1504 1504 1506 1506 1504 1503 1500 1504 1504 1499 1500 1497 1494 1490 1477 1479 1482 1481 1452 1458 1429 1463 1469 1463 1456 1449 1440 1428
1428 1435 1444 1455 1460 1474 1478 1478 1489 1473 1472 1483 1485 1491 1492 1498 1501 1500 1500 1501 1498 1497 1494 1494 1496 1500 1502 1497 1490 1491 1482 1465 1464 1463 1451 1445 1447 1475 1471 1474 1471 1462 1455 1446 1440
1422 1431 1441 1451 1466 1472 1476 1475 1471 1452 1464 1471 1482 1488 1490 1496 1499 1500 1500 1499 1504 1500 1497 1493 1495 1496 1500 1500 1494 1489 1489 1481 1481 1458 1454 1442 1440 1465 1475 1476 1474 1467 1459 1452 1446
1414 1432 1443 1450 1462 1466 1474 1466 1450 1453 1461 1464 1483 1485 1491 1495 1495 1499 1499 1497 1502 1502 1501 1497 1494 1498 1498 1496 1492 1496 1486 1487 1488 1466 1467 1436 1447 1462 1474 1474 1474 1471 1461 1456 1449
1412 1431 1444 1450 1460 1470 1470 1453 1450 1457 1458 1463 1465 1474 1483 1488 1491 1501 1495 1499 1503 1506 1506 1503 1499 1496 1495 1493 1491 1489 1487 1481 1482 1475 1462 1433 1466 1481 1483 1483 1478 1474 1467 1460 1450
1412 1432 1444 1454 1461 1469 1461 1451 1455 1458 1461 1463 1466 1473 1477 1481 1486 1496 1494 1500 1503 1503 1505 1504 1503 1492 1493 1490 1488 1484 1483 1487 1483 1474 1459 1447 1479 1502 1497 1493 1486 1481 1475 1465 1455
1407 1428 1445 1453 1457 1459 1453 1451 1454 1457 1462 1463 1464 1472 1475 1480 1485 1489 1489 1492 1502 1502 1499 1503 1500 1493 1488 1489 1491 1492 1494 1489 1483 1466 1463 1460 1485 1503 1500 1497 1492 1486 1477 1468 1461
1411 1425 1443 1450 1446 1447 1454 1451 1454 1456 1458 1462 1468 1471 1474 1478 1485 1486 1490 1498 1500 1500 1498 1500 1496 1492 1488 1493 1489 1493 1494 1491 1486 1484 1474 1467 1482 1502 1502 1499 1496 1489 1482 1472 1462
1407 1429 1443 1449 1448 1446 1445 1448 1453 1461 1464 1465 1468 1471 1474 1480 1483 1487 1491 1497 1498 1498 1500 1500 1494 1500 1494 1500 1501 1496 1493 1490 1482 1476 1478 1490 1496 1500 1502 1500 1497 1492 1484 1476 1467
1407 1421 1429 1439 1443 1444 1442 1446 1451 1455 1462 1465 1471 1469 1472 1478 1483 1485 1488 1494 1497 1498 1497 1496 1492 1494 1493 1489 1500 1504 1495 1495 1494 1486 1476 1498 1499 1504 1505 1503 1500 1496 1488 1480 1472
1410 1419 1430 1434 1438 1442 1441 1442 1446 1457 1460 1465 1465 1471 1473 1475 1476 1481 1484 1486 1486 1495 1493 1497 1492 1494 1487 1485 1496 1502 1495 1492 1496 1498 1493 1495 1496 1506 1507 1505 1501 1497 1492 1486 1480
1412 1418 1425 1433 1437 1437 1438 1443 1449 1453 1465 1464 1467 1472 1475 1478 1480 1482 1486 1488 1489 1489 1491 1496 1494 1490 1477 1480 1497 1495 1508 1504 1506 1507 1505 1499 1508 1507 1504 1504 1503 1500 1497 1491 1484